Change the Weather History Date:

Friday, October 26, 2012

  Actual Average Record
Temperature  
Mean Temperature 67 °F 56 °F  
Max Temperature 72 °F 65 °F 76 °F (1984)
Min Temperature 62 °F 47 °F 33 °F (2013)
Degree Days  
Heating Degree Days 0    
Month to date heating degree days 105  
Since 1 July heating degree days 115  
Cooling Degree Days 2    
Month to date cooling degree days 67  
Year to date cooling degree days 1616  
Growing Degree Days 17 (Base 50)    
Moisture  
Dew Point 59 °F    
Average Humidity 76    
Maximum Humidity 84    
Minimum Humidity 68    
Precipitation  
Precipitation 0.00 in 0.10 in 1.17 in (2002)
Month to date precipitation 1.92 2.62  
Year to date precipitation 36.14 33.99  
Sea Level Pressure  
Sea Level Pressure 30.11 in    
Wind  
Wind Speed 10 mph (ENE)    
Max Wind Speed 17 mph    
Max Gust Speed 28 mph    
Visibility 10 miles    
Events      
T = Trace of Precipitation, MM = Missing Value Source: NWS Daily Summary

Daily Weather History Graph

Daily Weather History Graph

Search for Another Location

Airport or City:

Trip Planner

Search our weather history database for the weather conditions in past years. The results will help you decide how hot, cold, wet, or windy it might be!

Date:

Astronomy

Oct. 26, 2012 Rise Set
Actual Time 7:21 AM EDT 6:09 PM EDT
Civil Twilight 6:54 AM EDT 6:36 PM EDT
Nautical Twilight 6:23 AM EDT 7:07 PM EDT
Astronomical Twilight 5:53 AM EDT 7:37 PM EDT
Moon 4:21 PM EDT (10/26) 4:18 AM EDT (10/26)
Length of Visible Light 11h 41m
Length of Day
10h 47m
Waxing Gibbous, 91% of the Moon is Illuminated
Oct 26
Waxing Gibbous
Oct 29
Full
Nov 6
Last Quarter
Nov 13
New
Nov 20
First Quarter

Hourly Weather History & Observations

Time (EDT) Temp. Dew Point Humidity Pressure Visibility Wind Dir Wind Speed Gust Speed Precip Events Conditions
12:11 AM 64.0 °F 59.0 °F 84% 30.16 in 10.0 mi East 8.1 mph - N/A   Scattered Clouds
12:54 AM 64.0 °F 59.0 °F 84% 30.15 in 10.0 mi East 6.9 mph - N/A   Clear
1:54 AM 64.0 °F 57.9 °F 80% 30.14 in 10.0 mi East 5.8 mph - N/A   Clear
2:54 AM 64.0 °F 57.9 °F 80% 30.14 in 10.0 mi East 6.9 mph - N/A   Clear
3:54 AM 63.0 °F 57.9 °F 84% 30.13 in 10.0 mi ENE 4.6 mph - N/A   Clear
4:29 AM 63.0 °F 57.9 °F 84% 30.13 in 10.0 mi ENE 5.8 mph - N/A   Partly Cloudy
4:54 AM 63.0 °F 57.9 °F 84% 30.12 in 10.0 mi ENE 6.9 mph - N/A   Clear
5:32 AM 63.0 °F 57.9 °F 84% 30.14 in 10.0 mi NE 6.9 mph - N/A   Partly Cloudy
5:44 AM 63.0 °F 57.9 °F 84% 30.14 in 10.0 mi NNE 5.8 mph - N/A   Mostly Cloudy
5:54 AM 64.0 °F 57.9 °F 80% 30.13 in 10.0 mi NE 8.1 mph - N/A   Overcast
6:03 AM 64.0 °F 57.9 °F 80% 30.14 in 10.0 mi NE 8.1 mph - N/A   Overcast
6:46 AM 63.0 °F 57.0 °F 81% 30.13 in 10.0 mi NNE 5.8 mph - N/A   Scattered Clouds
6:54 AM 63.0 °F 57.0 °F 81% 30.12 in 10.0 mi NNE 5.8 mph - N/A   Partly Cloudy
7:06 AM 62.1 °F 57.0 °F 84% 30.13 in 10.0 mi NNE 5.8 mph - N/A   Scattered Clouds
7:17 AM 62.1 °F 57.0 °F 84% 30.13 in 9.0 mi North 5.8 mph - N/A   Mostly Cloudy
7:54 AM 62.6 °F 57.2 °F 82% 30.14 in 9.0 mi ENE 6.9 mph - N/A   Overcast
8:09 AM 63.0 °F 57.9 °F 84% 30.15 in 10.0 mi NE 8.1 mph - N/A   Overcast
8:31 AM 64.4 °F 59.0 °F 83% 30.15 in 10.0 mi NE 8.1 mph - N/A   Overcast
8:54 AM 66.0 °F 60.1 °F 81% 30.14 in 10.0 mi NE 9.2 mph - N/A   Mostly Cloudy
9:32 AM 66.9 °F 61.0 °F 81% 30.16 in 10.0 mi ENE 11.5 mph - N/A   Scattered Clouds
9:54 AM 66.9 °F 61.0 °F 81% 30.16 in 10.0 mi ENE 10.4 mph - N/A   Clear
10:54 AM 70.0 °F 61.0 °F 73% 30.15 in 10.0 mi ENE 12.7 mph - N/A   Clear
11:54 AM 71.1 °F 60.1 °F 68% 30.14 in 10.0 mi ENE 11.5 mph - N/A   Overcast
12:54 PM 71.1 °F 60.1 °F 68% 30.11 in 10.0 mi ENE 16.1 mph - N/A   Clear
1:54 PM 71.1 °F 60.1 °F 68% 30.09 in 10.0 mi ENE 13.8 mph - N/A   Clear
2:54 PM 70.0 °F 60.1 °F 71% 30.07 in 10.0 mi ENE 16.1 mph - N/A   Clear
3:54 PM 69.1 °F 60.1 °F 73% 30.06 in 10.0 mi East 12.7 mph - N/A   Clear
4:54 PM 68.0 °F 59.0 °F 73% 30.04 in 10.0 mi East 13.8 mph - N/A   Clear
5:54 PM 66.9 °F 57.9 °F 73% 30.04 in 10.0 mi East 11.5 mph - N/A   Clear
6:54 PM 66.0 °F 57.9 °F 75% 30.05 in 10.0 mi ENE 10.4 mph - N/A   Clear
7:54 PM 64.9 °F 57.0 °F 75% 30.06 in 10.0 mi ENE 10.4 mph - N/A   Clear
8:54 PM 64.9 °F 57.9 °F 78% 30.05 in 10.0 mi ENE 8.1 mph - N/A   Clear
9:54 PM 64.9 °F 57.9 °F 78% 30.04 in 10.0 mi ENE 9.2 mph - N/A   Clear
10:54 PM 64.9 °F 57.9 °F 78% 30.03 in 10.0 mi NE 11.5 mph - N/A   Clear
11:54 PM 64.9 °F 57.9 °F 78% 30.01 in 10.0 mi NE 11.5 mph - N/A   Clear